Location: ??????
(55.7522°N, 37.6156°E)
Time: 18:30:29
(UTC+00:00)

H-2A R/B - Pass Details

Date: 14 June 2025
Orbit: 492 x 572 km, 98.2° (Epoch: 12 July)

Event Time Altitude Azimuth Distance (km) Brightness Sun altitude
Exits shadow 21:56:21 11° 152° (SSE) 1,629 4.2 -10.7°
Maximum altitude 21:59:47 65° 71° (ENE) 551 2.4 -10.7°
Drops below altitude 10° 22:03:25 10° 349° (N) 1,704 6.1 -10.6°
Sets 22:05:30 0° 346° (NNW) 2,592 7.2 -10.6°
